,,PA_Meas_PMT16A,,PR_Meas_QMR101_102,,RH_Meas_QMH101,,SR_Meas_QMS101,,TA_Meas_QMH101,,GenWind,,GenWind,
time,status,PA,status,PR,status,RH,status,SR,status,TA,status,DirAvg,status,SpdAvg,
2011-01-18, 00:00:04,VALID,917.438,VALID,0,VALID,94.9496,VALID,0,VALID,18.6694,VALID,68,VALID,1.19609,
2011-01-18, 00:01:04,VALID,917.443,VALID,0,VALID,95.3537,VALID,0,VALID,18.6889,VALID,68,VALID,0.844141,
2011-01-18, 00:02:04,VALID,917.43,VALID,0,VALID,95.5671,VALID,0,VALID,18.7098,VALID,68,VALID,0.447266,
2011-01-18, 00:03:04,VALID,917.467,VALID,0,VALID,95.5367,VALID,0,VALID,18.6499,VALID,68,VALID,0.749609,
2011-01-18, 00:04:04,VALID,917.419,VALID,0,VALID,95.5824,VALID,0,VALID,18.6513,VALID,68,VALID,0.869531,
2011-01-18, 00:05:04,VALID,917.409,VALID,0,VALID,95.5367,VALID,0,VALID,18.6109,VALID,68,VALID,0.672266,
2011-01-18, 00:06:04,VALID,917.399,VALID,0,VALID,95.4452,VALID,0,VALID,18.572,VALID,68,VALID,0.758984,
2011-01-18, 00:07:04,VALID,917.396,VALID,0,VALID,95.4071,VALID,0,VALID,18.5525,VALID,68,VALID,0.588281,
2011-01-18, 00:08:04,VALID,917.375,VALID,0,VALID,95.4299,VALID,0,VALID,18.5734,VALID,68,VALID,0.574609,
2011-01-18, 00:09:04,VALID,917.367,VALID,0,VALID,95.5519,VALID,0,VALID,18.572,VALID,68,VALID,0.501562,
2011-01-18, 00:10:04,VALID,917.369,VALID,0,VALID,95.5824,VALID,0,VALID,18.572,VALID,68,VALID,0.392969,
2011-01-18, 00:11:04,VALID,917.35,VALID,0,VALID,95.4757,VALID,0,VALID,18.533,VALID,68,VALID,0.413281,
2011-01-18, 00:12:04,VALID,917.338,VALID,0,VALID,95.5214,VALID,0,VALID,18.572,VALID,68,VALID,0.437891,
2011-01-18, 00:13:04,VALID,917.344,VALID,0,VALID,95.6205,VALID,0,VALID,18.6109,VALID,68,VALID,0.625,
2011-01-18, 00:14:04,VALID,917.326,VALID,0,VALID,95.6586,VALID,0,VALID,18.6109,VALID,68,VALID,0.661328,
2011-01-18, 00:15:04,VALID,917.291,VALID,0,VALID,95.7806,VALID,0,VALID,18.6304,VALID,68,VALID,0.776563,
2011-01-18, 00:16:04,VALID,917.251,VALID,0,VALID,95.773,VALID,0,VALID,18.6109,VALID,68,VALID,0.882031,
2011-01-18, 00:17:04,VALID,917.304,VALID,0,VALID,95.7882,VALID,0,VALID,18.6304,VALID,68,VALID,0.996875,
2011-01-18, 00:18:04,VALID,917.28,VALID,0,VALID,95.8187,VALID,0,VALID,18.6499,VALID,68,VALID,0.823047,
2011-01-18, 00:19:04,VALID,917.287,VALID,0,VALID,95.773,VALID,0,VALID,18.6708,VALID,68,VALID,0.931641,
2011-01-18, 00:20:04,VALID,917.264,VALID,0,VALID,95.7882,VALID,0,VALID,18.6694,VALID,68,VALID,0.965625,
2011-01-18, 00:21:04,VALID,917.282,VALID,0,VALID,95.8645,VALID,0,VALID,18.7084,VALID,68,VALID,0.885547,
2011-01-18, 00:22:04,VALID,917.278,VALID,0,VALID,95.8416,VALID,0,VALID,18.7279,VALID,68,VALID,0.693359,
2011-01-18, 00:23:04,VALID,917.278,VALID,0,VALID,95.7044,VALID,0.107441,VALID,18.6889,VALID,68,VALID,0.720312,
2011-01-18, 00:24:04,VALID,917.259,VALID,0,VALID,95.5671,VALID,0,VALID,18.6694,VALID,68,VALID,0.681641,
2011-01-18, 00:25:04,VALID,917.267,VALID,0,VALID,95.4604,VALID,0,VALID,18.6304,VALID,68,VALID,0.510938,
2011-01-18, 00:26:04,VALID,917.275,VALID,0,VALID,95.2546,VALID,0,VALID,18.6319,VALID,68,VALID,0.604297,
2011-01-18, 00:27:04,VALID,917.275,VALID,0,VALID,94.9878,VALID,0,VALID,18.6124,VALID,68,VALID,0.728516,
2011-01-18, 00:28:04,VALID,917.281,VALID,0,VALID,94.8582,VALID,0,VALID,18.5525,VALID,68,VALID,0.546484,
2011-01-18, 00:29:04,VALID,917.282,VALID,0,VALID,94.881,VALID,0,VALID,18.533,VALID,68,VALID,0.458203,
2011-01-18, 00:30:04,VALID,917.287,VALID,0,VALID,95.003,VALID,0,VALID,18.5734,VALID,68,VALID,0.459375,
2011-01-18, 00:31:04,VALID,917.286,VALID,0,VALID,94.7667,VALID,0,VALID,18.494,VALID,68,VALID,0.610937,
2011-01-18, 00:32:04,VALID,917.287,VALID,0,VALID,95.0411,VALID,0,VALID,18.533,VALID,68,VALID,0.917188,
2011-01-18, 00:33:04,VALID,917.266,VALID,0,VALID,95.3003,VALID,0,VALID,18.533,VALID,68,VALID,1.04688,
2011-01-18, 00:34:04,VALID,917.222,VALID,0,VALID,95.5367,VALID,0,VALID,18.533,VALID,68,VALID,0.913281,
2011-01-18, 00:35:04,VALID,917.214,VALID,0,VALID,95.6053,VALID,0,VALID,18.5135,VALID,68,VALID,1.27773,
2011-01-18, 00:36:04,VALID,917.184,VALID,0,VALID,95.6891,VALID,0,VALID,18.5149,VALID,68,VALID,1.18828,
2011-01-18, 00:37:04,VALID,917.138,VALID,0,VALID,95.6662,VALID,0,VALID,18.4564,VALID,68,VALID,1.1707,
2011-01-18, 00:38:04,VALID,917.153,VALID,0,VALID,95.7044,VALID,0,VALID,18.4369,VALID,68,VALID,1.0543,
2011-01-18, 00:39:04,VALID,917.124,VALID,0,VALID,95.9559,VALID,0,VALID,18.416,VALID,68,VALID,0.921094,
2011-01-18, 00:40:05,VALID,917.096,VALID,0,VALID,96.0627,VALID,0,VALID,18.4355,VALID,68,VALID,1.27227,
2011-01-18, 00:41:05,VALID,917.107,VALID,0,VALID,96.1618,VALID,0,VALID,18.455,VALID,68,VALID,1.09922,
2011-01-18, 00:42:05,VALID,917.074,VALID,0,VALID,96.1999,VALID,0,VALID,18.455,VALID,68,VALID,1.18008,
2011-01-18, 00:43:05,VALID,917.095,VALID,0,VALID,96.2609,VALID,0,VALID,18.455,VALID,68,VALID,1.27344,
2011-01-18, 00:44:05,VALID,917.092,VALID,0,VALID,96.2685,VALID,0,VALID,18.455,VALID,68,VALID,1.11719,
2011-01-18, 00:45:05,VALID,917.092,VALID,0,VALID,96.3219,VALID,0,VALID,18.494,VALID,68,VALID,1.50469,
2011-01-18, 00:46:05,VALID,917.087,VALID,0,VALID,96.2228,VALID,0,VALID,18.4745,VALID,68,VALID,1.16406,
2011-01-18, 00:47:05,VALID,917.078,VALID,0,VALID,96.1694,VALID,0,VALID,18.4745,VALID,68,VALID,1.43398,
2011-01-18, 00:48:05,VALID,917.063,VALID,0,VALID,96.1694,VALID,0,VALID,18.4954,VALID,68,VALID,1.11758,
2011-01-18, 00:49:05,VALID,917.04,VALID,0,VALID,96.1313,VALID,0,VALID,18.494,VALID,68,VALID,1.24414,
2011-01-18, 00:50:05,VALID,917.066,VALID,0,VALID,96.0474,VALID,0,VALID,18.5344,VALID,68,VALID,1.03945,
2011-01-18, 00:51:05,VALID,917.032,VALID,0,VALID,95.9254,VALID,0,VALID,18.4745,VALID,68,VALID,0.498437,
2011-01-18, 00:52:05,VALID,917.051,VALID,0,VALID,95.8797,VALID,0,VALID,18.5344,VALID,68,VALID,0.965234,
2011-01-18, 00:53:05,VALID,917.021,VALID,0,VALID,95.8797,VALID,0,VALID,18.5344,VALID,68,VALID,1.14141,
2011-01-18, 00:54:05,VALID,917.032,VALID,0,VALID,95.8187,VALID,0,VALID,18.533,VALID,68,VALID,1.28594,
2011-01-18, 00:55:05,VALID,917.001,VALID,0,VALID,95.8263,VALID,0,VALID,18.533,VALID,68,VALID,0.971875,
2011-01-18, 00:56:05,VALID,916.983,VALID,0,VALID,95.7958,VALID,0,VALID,18.5539,VALID,68,VALID,0.729297,
2011-01-18, 00:57:05,VALID,916.996,VALID,0,VALID,95.7349,VALID,0,VALID,18.5135,VALID,68,VALID,0.646094,
2011-01-18, 00:58:05,VALID,916.977,VALID,0,VALID,95.6281,VALID,0,VALID,18.5344,VALID,68,VALID,0.809766,
2011-01-18, 00:59:05,VALID,916.948,VALID,0,VALID,95.5824,VALID,0,VALID,18.5344,VALID,68,VALID,0.619922,
2011-01-18, 01:00:05,VALID,916.944,VALID,0,VALID,95.4833,VALID,0,VALID,18.5149,VALID,68,VALID,0.672266,
2011-01-18, 01:01:05,VALID,916.964,VALID,0,VALID,95.4528,VALID,0,VALID,18.5149,VALID,68,VALID,0.623438,
2011-01-18, 01:02:05,VALID,916.942,VALID,0,VALID,95.4452,VALID,0,VALID,18.5344,VALID,68,VALID,0.617969,
2011-01-18, 01:03:05,VALID,916.929,VALID,0,VALID,95.4147,VALID,0,VALID,18.5344,VALID,68,VALID,0.595703,
2011-01-18, 01:04:05,VALID,916.946,VALID,0,VALID,95.4299,VALID,0,VALID,18.5135,VALID,68,VALID,0.705859,
2011-01-18, 01:05:05,VALID,916.938,VALID,0,VALID,95.3537,VALID,0,VALID,18.5149,VALID,68,VALID,0.454297,
2011-01-18, 01:06:05,VALID,916.944,VALID,0,VALID,95.4604,VALID,0,VALID,18.5149,VALID,68,VALID,0.536328,
2011-01-18, 01:07:05,VALID,916.941,VALID,0,VALID,95.5595,VALID,0,VALID,18.5135,VALID,68,VALID,0.457031,
2011-01-18, 01:08:05,VALID,916.929,VALID,0,VALID,95.5519,VALID,0,VALID,18.533,VALID,68,VALID,0.134766,
2011-01-18, 01:09:05,VALID,916.928,VALID,0,VALID,95.5214,VALID,0,VALID,18.5539,VALID,68,VALID,0.1375,
2011-01-18, 01:10:05,VALID,916.937,VALID,0,VALID,95.4833,VALID,0,VALID,18.5135,VALID,68,VALID,0.0519531,
2011-01-18, 01:11:05,VALID,916.924,VALID,0,VALID,95.2393,VALID,0,VALID,18.5149,VALID,68,VALID,0.320313,
2011-01-18, 01:12:05,VALID,916.899,VALID,0,VALID,95.125,VALID,0,VALID,18.494,VALID,68,VALID,0.167969,
2011-01-18, 01:13:05,VALID,916.873,VALID,0,VALID,95.1174,VALID,0,VALID,18.494,VALID,68,VALID,0.527344,
2011-01-18, 01:14:05,VALID,916.863,VALID,0,VALID,95.1021,VALID,0,VALID,18.5149,VALID,68,VALID,0.492578,
2011-01-18, 01:15:05,VALID,916.868,VALID,0,VALID,94.9496,VALID,0,VALID,18.455,VALID,68,VALID,0.269531,
2011-01-18, 01:16:05,VALID,916.854,VALID,0,VALID,94.7972,VALID,0,VALID,18.4369,VALID,68,VALID,0.387891,
2011-01-18, 01:17:05,VALID,916.873,VALID,0,VALID,94.8505,VALID,0,VALID,18.4174,VALID,68,VALID,0.165625,
2011-01-18, 01:18:05,VALID,916.837,VALID,0,VALID,94.8429,VALID,0,VALID,18.338,VALID,68,VALID,0,
2011-01-18, 01:19:05,VALID,916.83,VALID,0,VALID,94.7972,VALID,0,VALID,18.3185,VALID,68,VALID,0,
2011-01-18, 01:20:05,VALID,916.815,VALID,0,VALID,94.5227,VALID,0,VALID,18.2601,VALID,68,VALID,0.115234,
2011-01-18, 01:21:05,VALID,916.801,VALID,0,VALID,94.1339,VALID,0,VALID,18.242,VALID,68,VALID,0.106641,
2011-01-18, 01:22:05,VALID,916.809,VALID,0,VALID,93.9281,VALID,0,VALID,18.2016,VALID,68,VALID,0.360938,
2011-01-18, 01:23:05,VALID,916.787,VALID,0,VALID,93.9586,VALID,0,VALID,18.1626,VALID,68,VALID,0.372266,
2011-01-18, 01:24:05,VALID,916.771,VALID,0,VALID,94.2026,VALID,0,VALID,18.1626,VALID,68,VALID,0.257422,
2011-01-18, 01:25:05,VALID,916.825,VALID,0,VALID,94.3017,VALID,0,VALID,18.1626,VALID,68,VALID,0.486719,
2011-01-18, 01:26:05,VALID,916.79,VALID,0,VALID,94.4465,VALID,0,VALID,18.164,VALID,68,VALID,0.491406,
2011-01-18, 01:27:05,VALID,916.812,VALID,0,VALID,94.3779,VALID,0,VALID,18.1445,VALID,68,VALID,0.530469,
2011-01-18, 01:28:05,VALID,916.776,VALID,0,VALID,94.6142,VALID,0,VALID,18.1236,VALID,68,VALID,0.847656,
2011-01-18, 01:29:05,VALID,916.751,VALID,0,VALID,95.0945,VALID,0,VALID,18.1821,VALID,68,VALID,1.01445,
2011-01-18, 01:30:05,VALID,916.78,VALID,0,VALID,95.4757,VALID,0,VALID,18.2615,VALID,68,VALID,0.942969,
2011-01-18, 01:31:05,VALID,916.78,VALID,0,VALID,95.5519,VALID,0,VALID,18.2601,VALID,68,VALID,0.956641,
2011-01-18, 01:32:05,VALID,916.748,VALID,0,VALID,95.5138,VALID,0,VALID,18.2406,VALID,68,VALID,0.784375,
2011-01-18, 01:33:05,VALID,916.754,VALID,0,VALID,95.5595,VALID,0.107441,VALID,18.2002,VALID,68,VALID,0.81875,
2011-01-18, 01:34:05,VALID,916.767,VALID,0,VALID,95.5671,VALID,0.107441,VALID,18.1821,VALID,68,VALID,0.551172,
2011-01-18, 01:35:05,VALID,916.744,VALID,0,VALID,95.59,VALID,0.107441,VALID,18.2016,VALID,68,VALID,0.546094,
2011-01-18, 01:36:05,VALID,916.732,VALID,0,VALID,95.529,VALID,0.107441,VALID,18.1612,VALID,68,VALID,0.434766,
2011-01-18, 01:37:05,VALID,916.721,VALID,0,VALID,95.4833,VALID,0.107441,VALID,18.1222,VALID,68,VALID,0.3875,
2011-01-18, 01:38:05,VALID,916.664,VALID,0,VALID,95.5671,VALID,0,VALID,18.1626,VALID,68,VALID,0.509375,
2011-01-18, 01:39:05,VALID,916.66,VALID,0,VALID,95.5671,VALID,0,VALID,18.1041,VALID,68,VALID,0.320703,
2011-01-18, 01:40:05,VALID,916.636,VALID,0,VALID,95.6129,VALID,0.107441,VALID,18.1041,VALID,68,VALID,0.335547,
2011-01-18, 01:41:05,VALID,916.625,VALID,0,VALID,95.7349,VALID,0,VALID,18.1041,VALID,68,VALID,0.546094,
2011-01-18, 01:42:05,VALID,916.645,VALID,0,VALID,95.8035,VALID,0.107441,VALID,18.0638,VALID,68,VALID,0.584375,
2011-01-18, 01:43:05,VALID,916.672,VALID,0,VALID,95.8568,VALID,0,VALID,18.0638,VALID,68,VALID,0.373437,
2011-01-18, 01:44:05,VALID,916.628,VALID,0,VALID,95.8721,VALID,0.107441,VALID,18.0457,VALID,68,VALID,0.418359,
2011-01-18, 01:45:05,VALID,916.61,VALID,0,VALID,95.9407,VALID,0,VALID,18.0457,VALID,68,VALID,0.505469,
2011-01-18, 01:46:05,VALID,916.591,VALID,0,VALID,96.0322,VALID,0,VALID,18.086,VALID,68,VALID,0.641406,
2011-01-18, 01:47:05,VALID,916.566,VALID,0,VALID,96.0855,VALID,0,VALID,18.1055,VALID,68,VALID,0.742969,
2011-01-18, 01:48:05,VALID,916.549,VALID,0,VALID,96.177,VALID,0,VALID,18.1445,VALID,68,VALID,0.855859,
2011-01-18, 01:49:05,VALID,916.5,VALID,0,VALID,96.2609,VALID,0,VALID,18.164,VALID,68,VALID,0.942578,
2011-01-18, 01:50:05,VALID,916.51,VALID,0,VALID,96.2685,VALID,0,VALID,18.164,VALID,68,VALID,0.816016,
2011-01-18, 01:51:05,VALID,916.489,VALID,0,VALID,96.2914,VALID,0,VALID,18.203,VALID,68,VALID,0.814453,
2011-01-18, 01:52:05,VALID,916.484,VALID,0,VALID,96.299,VALID,0,VALID,18.203,VALID,68,VALID,0.693359,
2011-01-18, 01:53:05,VALID,916.458,VALID,0,VALID,96.3524,VALID,0,VALID,18.2615,VALID,68,VALID,0.666406,
2011-01-18, 01:54:05,VALID,916.45,VALID,0,VALID,96.2914,VALID,0,VALID,18.2615,VALID,68,VALID,0.767969,
2011-01-18, 01:55:05,VALID,916.445,VALID,0,VALID,96.2837,VALID,0,VALID,18.2601,VALID,68,VALID,0.777344,
2011-01-18, 01:56:05,VALID,916.414,VALID,0,VALID,96.2228,VALID,0,VALID,18.2615,VALID,68,VALID,0.773438,
2011-01-18, 01:57:05,VALID,916.434,VALID,0,VALID,96.0855,VALID,0,VALID,18.242,VALID,68,VALID,0.755469,
2011-01-18, 01:58:05,VALID,916.411,VALID,0,VALID,96.0703,VALID,0,VALID,18.242,VALID,68,VALID,0.828906,
2011-01-18, 01:59:05,VALID,916.423,VALID,0,VALID,96.0322,VALID,0,VALID,18.2225,VALID,68,VALID,0.225781,
2011-01-18, 02:00:05,VALID,916.403,VALID,0,VALID,95.9712,VALID,0,VALID,18.2225,VALID,68,VALID,0.485938,
2011-01-18, 02:01:05,VALID,916.401,VALID,0,VALID,95.9712,VALID,0,VALID,18.2225,VALID,68,VALID,0.853906,
2011-01-18, 02:02:05,VALID,916.394,VALID,0,VALID,95.9407,VALID,0,VALID,18.1821,VALID,68,VALID,1.01914,
2011-01-18, 02:03:05,VALID,916.392,VALID,0,VALID,95.9178,VALID,0,VALID,18.1835,VALID,68,VALID,1.15469,
2011-01-18, 02:04:05,VALID,916.377,VALID,0,VALID,95.8187,VALID,0,VALID,18.1445,VALID,68,VALID,0.801562,
2011-01-18, 02:05:05,VALID,916.332,VALID,0,VALID,95.7501,VALID,0,VALID,18.086,VALID,68,VALID,0.873828,
2011-01-18, 02:06:05,VALID,916.384,VALID,0,VALID,95.6891,VALID,0,VALID,18.047,VALID,68,VALID,0.790234,
2011-01-18, 02:07:05,VALID,916.337,VALID,0,VALID,95.6281,VALID,0,VALID,17.9886,VALID,68,VALID,0.869922,
2011-01-18, 02:08:05,VALID,916.342,VALID,0,VALID,95.6129,VALID,0,VALID,17.9496,VALID,68,VALID,0.839844,
2011-01-18, 02:09:05,VALID,916.346,VALID,0,VALID,95.651,VALID,0,VALID,17.9106,VALID,68,VALID,0.821484,
2011-01-18, 02:10:05,VALID,916.338,VALID,0,VALID,95.6815,VALID,0,VALID,17.8716,VALID,68,VALID,0.7375,
2011-01-18, 02:11:05,VALID,916.319,VALID,0,VALID,95.7806,VALID,0,VALID,17.8131,VALID,68,VALID,0.950391,
2011-01-18, 02:12:05,VALID,916.311,VALID,0,VALID,95.8797,VALID,0,VALID,17.8131,VALID,68,VALID,0.763281,
2011-01-18, 02:13:05,VALID,916.288,VALID,0,VALID,96.0398,VALID,0,VALID,17.7936,VALID,68,VALID,0.821875,
2011-01-18, 02:14:05,VALID,916.283,VALID,0,VALID,96.1846,VALID,0,VALID,17.8131,VALID,68,VALID,1.13516,
2011-01-18, 02:15:05,VALID,916.272,VALID,0,VALID,96.238,VALID,0,VALID,17.7936,VALID,68,VALID,0.741406,
2011-01-18, 02:16:05,VALID,916.275,VALID,0,VALID,96.2914,VALID,0,VALID,17.7728,VALID,68,VALID,1.08047,
2011-01-18, 02:17:05,VALID,916.264,VALID,0,VALID,96.2761,VALID,0.107441,VALID,17.7728,VALID,68,VALID,0.735547,
2011-01-18, 02:18:05,VALID,916.285,VALID,0,VALID,96.2914,VALID,0.214882,VALID,17.713,VALID,68,VALID,0.663672,
2011-01-18, 02:19:05,VALID,916.231,VALID,0,VALID,96.2837,VALID,0.107441,VALID,17.7338,VALID,68,VALID,0.85,
2011-01-18, 02:20:05,VALID,916.245,VALID,0,VALID,96.3142,VALID,0.107441,VALID,17.7338,VALID,68,VALID,0.799219,
2011-01-18, 02:21:05,VALID,916.215,VALID,0,VALID,96.2914,VALID,0.107441,VALID,17.7338,VALID,68,VALID,0.946094,
2011-01-18, 02:22:05,VALID,916.216,VALID,0,VALID,96.299,VALID,0.107441,VALID,17.7533,VALID,68,VALID,1.06797,
2011-01-18, 02:23:05,VALID,916.179,VALID,0,VALID,96.3371,VALID,0.107441,VALID,17.7728,VALID,68,VALID,1.42891,
2011-01-18, 02:24:05,VALID,916.227,VALID,0,VALID,96.2533,VALID,0.107441,VALID,17.7923,VALID,68,VALID,1.14961,
2011-01-18, 02:25:05,VALID,916.2,VALID,0,VALID,96.1541,VALID,0.107441,VALID,17.7923,VALID,68,VALID,1.19414,
2011-01-18, 02:26:05,VALID,916.174,VALID,0,VALID,96.0322,VALID,0.107441,VALID,17.7923,VALID,68,VALID,0.887109,
2011-01-18, 02:27:05,VALID,916.204,VALID,0,VALID,95.9712,VALID,0.107441,VALID,17.8118,VALID,68,VALID,0.842969,
2011-01-18, 02:28:05,VALID,916.193,VALID,0,VALID,95.8721,VALID,0.107441,VALID,17.8118,VALID,68,VALID,0.976172,
2011-01-18, 02:29:05,VALID,916.184,VALID,0,VALID,95.7882,VALID,0.107441,VALID,17.8313,VALID,68,VALID,1.27031,
2011-01-18, 02:30:05,VALID,916.193,VALID,0,VALID,95.6586,VALID,0,VALID,17.8118,VALID,68,VALID,0.747656,
2011-01-18, 02:31:05,VALID,916.178,VALID,0,VALID,95.6967,VALID,0,VALID,17.8521,VALID,68,VALID,1.28125,
2011-01-18, 02:32:05,VALID,916.157,VALID,0,VALID,95.6357,VALID,0,VALID,17.8911,VALID,68,VALID,0.961719,
2011-01-18, 02:33:05,VALID,916.191,VALID,0,VALID,95.529,VALID,0,VALID,17.8911,VALID,68,VALID,1.05391,
2011-01-18, 02:34:05,VALID,916.176,VALID,0,VALID,95.4528,VALID,0,VALID,17.9106,VALID,68,VALID,1.1082,
2011-01-18, 02:35:05,VALID,916.171,VALID,0,VALID,95.4375,VALID,0,VALID,17.9301,VALID,68,VALID,0.918359,
2011-01-18, 02:36:05,VALID,916.116,VALID,0,VALID,95.3842,VALID,0,VALID,17.9106,VALID,68,VALID,1.06328,
2011-01-18, 02:37:05,VALID,916.125,VALID,0,VALID,95.3156,VALID,0,VALID,17.8716,VALID,68,VALID,0.841406,
2011-01-18, 02:38:05,VALID,916.105,VALID,0,VALID,95.3003,VALID,0,VALID,17.8521,VALID,68,VALID,1.21523,
2011-01-18, 02:39:05,VALID,916.112,VALID,0,VALID,95.2927,VALID,0,VALID,17.8326,VALID,68,VALID,1.27656,
2011-01-18, 02:40:05,VALID,916.089,VALID,0,VALID,95.2393,VALID,0,VALID,17.7936,VALID,69,VALID,1.34844,
2011-01-18, 02:41:05,VALID,916.1,VALID,0,VALID,95.247,VALID,0,VALID,17.8131,VALID,69,VALID,1.15508,
2011-01-18, 02:42:05,VALID,916.08,VALID,0,VALID,95.2317,VALID,0,VALID,17.8313,VALID,69,VALID,1.41719,
2011-01-18, 02:43:05,VALID,916.073,VALID,0,VALID,95.0792,VALID,0,VALID,17.8716,VALID,69,VALID,0.827344,
2011-01-18, 02:44:05,VALID,916.076,VALID,0,VALID,94.8429,VALID,0,VALID,17.9106,VALID,69,VALID,1.19062,
2011-01-18, 02:45:05,VALID,916.078,VALID,0,VALID,94.6828,VALID,0,VALID,17.9106,VALID,69,VALID,1,
2011-01-18, 02:46:05,VALID,916.1,VALID,0,VALID,94.5227,VALID,0,VALID,17.9301,VALID,69,VALID,1.18047,
2011-01-18, 02:47:05,VALID,916.09,VALID,0,VALID,94.3703,VALID,0,VALID,17.8911,VALID,69,VALID,0.579687,
2011-01-18, 02:48:05,VALID,916.102,VALID,0,VALID,94.2102,VALID,0,VALID,17.9106,VALID,69,VALID,0.928516,
2011-01-18, 02:49:05,VALID,916.099,VALID,0,VALID,94.2026,VALID,0,VALID,17.8716,VALID,69,VALID,0.656641,
2011-01-18, 02:50:05,VALID,916.063,VALID,0,VALID,94.2254,VALID,0,VALID,17.8716,VALID,69,VALID,0.786328,
2011-01-18, 02:51:05,VALID,916.081,VALID,0,VALID,94.2407,VALID,0,VALID,17.8716,VALID,69,VALID,0.705859,
2011-01-18, 02:52:05,VALID,916.075,VALID,0,VALID,94.2864,VALID,0,VALID,17.8521,VALID,69,VALID,0.766797,
2011-01-18, 02:53:05,VALID,916.077,VALID,0,VALID,94.3398,VALID,0,VALID,17.8521,VALID,69,VALID,0.799609,
2011-01-18, 02:54:05,VALID,916.046,VALID,0,VALID,94.3017,VALID,0,VALID,17.8326,VALID,69,VALID,0.782422,
2011-01-18, 02:55:05,VALID,916.029,VALID,0,VALID,94.2254,VALID,0,VALID,17.8521,VALID,69,VALID,0.742188,
2011-01-18, 02:56:05,VALID,916.052,VALID,0,VALID,94.1339,VALID,0,VALID,17.8521,VALID,70,VALID,0.774219,
2011-01-18, 02:57:05,VALID,916.031,VALID,0,VALID,94.0653,VALID,0,VALID,17.8716,VALID,70,VALID,0.694922,
2011-01-18, 02:58:05,VALID,916.012,VALID,0,VALID,93.9662,VALID,0,VALID,17.8911,VALID,70,VALID,0.316406,
2011-01-18, 02:59:05,VALID,916.035,VALID,0,VALID,93.8519,VALID,0,VALID,17.8911,VALID,70,VALID,0.393359,
2011-01-18, 03:00:05,VALID,916.027,VALID,0,VALID,93.8519,VALID,0,VALID,17.8716,VALID,70,VALID,0.419141,
2011-01-18, 03:01:05,VALID,916.006,VALID,0,VALID,93.8976,VALID,0.107441,VALID,17.8702,VALID,70,VALID,0.605078,
2011-01-18, 03:02:05,VALID,916.017,VALID,0,VALID,93.9434,VALID,0,VALID,17.8911,VALID,70,VALID,0.853516,
2011-01-18, 03:03:05,VALID,916.017,VALID,0,VALID,94.1644,VALID,0.107441,VALID,17.8897,VALID,71,VALID,0.893359,
2011-01-18, 03:04:05,VALID,915.993,VALID,0,VALID,94.1568,VALID,0,VALID,17.9287,VALID,71,VALID,1.00937,
2011-01-18, 03:05:05,VALID,916.024,VALID,0,VALID,93.9129,VALID,0.107441,VALID,17.9287,VALID,71,VALID,0.925,
2011-01-18, 03:06:05,VALID,915.979,VALID,0,VALID,93.8976,VALID,0,VALID,17.9287,VALID,71,VALID,0.713672,
2011-01-18, 03:07:05,VALID,916.03,VALID,0,VALID,93.6537,VALID,0.107441,VALID,17.9092,VALID,71,VALID,0.248828,
2011-01-18, 03:08:05,VALID,916.03,VALID,0,VALID,93.7833,VALID,0.107441,VALID,17.9092,VALID,71,VALID,0.408984,
2011-01-18, 03:09:05,VALID,916.011,VALID,0,VALID,93.829,VALID,0.107441,VALID,17.9092,VALID,71,VALID,0.825781,
2011-01-18, 03:10:05,VALID,915.992,VALID,0,VALID,93.89,VALID,0.107441,VALID,17.8897,VALID,72,VALID,0.841797,
2011-01-18, 03:11:05,VALID,915.993,VALID,0,VALID,94.0501,VALID,0,VALID,17.9092,VALID,72,VALID,0.892187,
2011-01-18, 03:12:05,VALID,915.961,VALID,0,VALID,94.1721,VALID,0.107441,VALID,17.9092,VALID,72,VALID,0.989062,
2011-01-18, 03:13:05,VALID,915.932,VALID,0,VALID,94.0806,VALID,0.107441,VALID,17.8884,VALID,72,VALID,0.814844,
2011-01-18, 03:14:05,VALID,915.862,VALID,0,VALID,94.1873,VALID,0.107441,VALID,17.9092,VALID,72,VALID,0.891797,
2011-01-18, 03:15:05,VALID,915.931,VALID,0,VALID,94.416,VALID,0.107441,VALID,17.9092,VALID,72,VALID,0.877344,
2011-01-18, 03:16:05,VALID,915.915,VALID,0,VALID,94.4084,VALID,0,VALID,17.9106,VALID,72,VALID,0.858594,
2011-01-18, 03:17:05,VALID,915.927,VALID,0,VALID,94.477,VALID,0,VALID,17.9106,VALID,72,VALID,0.902734,
2011-01-18, 03:18:05,VALID,915.89,VALID,0,VALID,94.4084,VALID,0,VALID,17.8716,VALID,72,VALID,0.894141,
2011-01-18, 03:19:05,VALID,915.927,VALID,0,VALID,94.5151,VALID,0,VALID,17.8716,VALID,72,VALID,0.741797,
2011-01-18, 03:20:05,VALID,915.906,VALID,0,VALID,94.4465,VALID,0,VALID,17.8118,VALID,72,VALID,0.608203,
2011-01-18, 03:21:05,VALID,915.915,VALID,0,VALID,94.4999,VALID,0,VALID,17.7936,VALID,73,VALID,0.850391,
2011-01-18, 03:22:05,VALID,915.922,VALID,0,VALID,94.6218,VALID,0,VALID,17.7741,VALID,73,VALID,1.10938,
2011-01-18, 03:23:05,VALID,915.915,VALID,0,VALID,94.7972,VALID,0,VALID,17.7547,VALID,73,VALID,1.07383,
2011-01-18, 03:24:05,VALID,915.879,VALID,0,VALID,95.0259,VALID,0,VALID,17.7352,VALID,73,VALID,0.974219,
2011-01-18, 03:25:05,VALID,915.884,VALID,0,VALID,95.0792,VALID,0,VALID,17.6948,VALID,73,VALID,0.987891,
2011-01-18, 03:26:05,VALID,915.879,VALID,0,VALID,95.1402,VALID,0,VALID,17.6767,VALID,74,VALID,0.969531,
2011-01-18, 03:27:04,VALID,915.9,VALID,0,VALID,95.247,VALID,0,VALID,17.6364,VALID,112,VALID,0.778906,
2011-01-18, 03:28:04,VALID,915.853,VALID,0,VALID,95.3537,VALID,0,VALID,17.6377,VALID,112,VALID,0.670703,
2011-01-18, 03:29:04,VALID,915.863,VALID,0,VALID,95.4375,VALID,0,VALID,17.6182,VALID,112,VALID,0.753516,
2011-01-18, 03:30:04,VALID,915.85,VALID,0,VALID,95.5367,VALID,0,VALID,17.5987,VALID,112,VALID,0.962109,
2011-01-18, 03:31:04,VALID,915.833,VALID,0,VALID,95.6205,VALID,0,VALID,17.5987,VALID,112,VALID,0.789844,
2011-01-18, 03:32:04,VALID,915.832,VALID,0,VALID,95.712,VALID,0,VALID,17.5987,VALID,112,VALID,0.957422,
2011-01-18, 03:33:04,VALID,915.828,VALID,0,VALID,95.7882,VALID,0,VALID,17.5987,VALID,112,VALID,0.78125,
2011-01-18, 03:34:04,VALID,915.817,VALID,0,VALID,95.8568,VALID,0,VALID,17.5987,VALID,112,VALID,1.01094,
2011-01-18, 03:35:04,VALID,915.812,VALID,0,VALID,95.8797,VALID,0,VALID,17.5792,VALID,112,VALID,0.816797,
2011-01-18, 03:36:04,VALID,915.831,VALID,0,VALID,95.9941,VALID,0,VALID,17.6182,VALID,112,VALID,1.00234,
2011-01-18, 03:37:04,VALID,915.859,VALID,0,VALID,96.0093,VALID,0,VALID,17.6377,VALID,112,VALID,0.836719,
2011-01-18, 03:38:04,VALID,915.82,VALID,0,VALID,95.9941,VALID,0,VALID,17.6364,VALID,112,VALID,1.02969,
2011-01-18, 03:39:04,VALID,915.835,VALID,0,VALID,95.9712,VALID,0,VALID,17.6559,VALID,159,VALID,1.07969,
2011-01-18, 03:40:04,VALID,915.834,VALID,0,VALID,95.9941,VALID,0,VALID,17.6962,VALID,150,VALID,1.51836,
2011-01-18, 03:41:04,VALID,915.837,VALID,0,VALID,95.9864,VALID,0,VALID,17.7352,VALID,154,VALID,1.43672,
2011-01-18, 03:42:04,VALID,915.825,VALID,0,VALID,95.9559,VALID,0,VALID,17.7533,VALID,154,VALID,1.22109,
2011-01-18, 03:43:04,VALID,915.791,VALID,0,VALID,95.895,VALID,0,VALID,17.8131,VALID,154,VALID,0.721484,
2011-01-18, 03:44:04,VALID,915.797,VALID,0,VALID,95.7501,VALID,0,VALID,17.7936,VALID,154,VALID,0.845312,
2011-01-18, 03:45:04,VALID,915.819,VALID,0,VALID,95.5824,VALID,0,VALID,17.8131,VALID,154,VALID,0.666797,